CZ-4C R/B, 48080

Orbit data source: Space-Track

CZ-4C R/B, 48080 is space debris in SSO originally from a launch on Tue, 30 Mar 2021 UTC launched from the Jiuquan Satellite Launch Center, China (JSC). Debris objects in space refer to the collection of defunct objects orbiting the Earth. Examples of debris include non-operational satellites, rocket bodies, and fragments generated from explosions, collisions, or faulty payload assembly.

Loading next visibility...
Identifier
48080, 2021-026B
Orbit
SSO
Country
Flag of CNCN / PRC
Related business
Manufacturer
SAST
Mission
Spacecraft
Bus & Motor
CZ-4 STAGE 3, Unknown motor
Mass
~1,000 kg wet, ~1,000 kg dry
Launch date (UTC)
2021-03-30 (5 years ago)
Launch vehicle
Unknown
Launch site
Jiuquan Satellite Launch Center, China (JSC)
Object type
Payload
Rocket body
Debris
Shape & HBR
Cyl, 2.5 m
Radar Cross Section
14.536 m², Large (>1 m²)

Expand to show TLE details & history
Last TLE update: 2 days ago

TLE from 2 days ago
0 CZ-4C R/B
1 48080U 21026B   26171.20722036  .00002786  00000-0  14114-3 0  9997
2 48080  97.7326 222.0121 0038808  28.8254 331.5112 15.17218949287293
Epoch: 2026-06-20T04:58Z
TLE epoch observation values (Epoch: 2026-06-20T04:58:23.839Z)
Latitude
0.00006°
Longitude
-121.0124°
Altitude
493.837 km
Speed
7.631 km/s
True Right ascension
14h 48m 02s
True Declination
0° 00' 00"
Sunlit
Object was in full shadow at epoch
Visualization orbit readout
Latitude
Unknown
Longitude
Unknown
Altitude
Unknown
Speed
Unknown
Apparent Right ascension
Unknown
Apparent Declination
Unknown
Sunlit
N/A
Visualization observer readout
Local Sidereal Time
21:39:08
Azimuth
Unknown
Elevation
Unknown
Doppler factor
Unknown
Orbital elements
Apogee altitude
537.97 km
Perigee altitude
484.498 km
Semi-major axis
6,889.371 km
Eccentricity
0.00388
Inclination
97.7326°
RAAN
222.0121°
Arg. of periapsis
28.8254°
True anomaly
331.29817°
Mean anomaly
331.5112°
Eccentric anomaly
331.40478°
Mean motion
3.79554 °/min
Orbital period
94.85 mins
BSTAR
0.00014114
Loading maneuver chart data...
Computing Atmospheric mass density...
Loading historical data...
Loading historical data...
Loading historical data...
Loading historical data...
Loading historical data...
Loading historical data...
Loading historical data...
Other satellites on launch #26 in the year 2021 (2021-03-30 UTC)

Documentation

Showing up to 5 results
|